Regional Weather Roundup
Issued by NWS

Home | Current Version | Previous Version | Graphics & Text | Print | Product List | Glossary On
Versions: 1 2 3 4 5 6 7 8 9 10 11 12 13 14 15 16 17 18 19 20 21 22 23 24 25 26 27 28 29 30 31 32 33 34 35 36 37 38 39 40 41 42 43 44 45 46 47 48 49 50
000
ASUS45 KTFX 061710
RWRMT
MONTANA REGIONAL WEATHER ROUNDUP
NATIONAL WEATHER SERVICE GREAT FALLS MT
1000 AM MST SAT FEB 06 2016

NOTE: "FAIR" INDICATES FEW OR NO CLOUDS BELOW 12000 FEET WITH NO
SIGNIFICANT WEATHER AND/OR OBSTRUCTIONS TO VISIBILITY.

MTZ001>007-043-061800-
WEST OF THE DIVIDE

CITY           SKY/WX    TMP DP  RH WIND       PRES   REMARKS
KALISPELL      MOSUNNY   37  27  67 SW22      30.12R WCI  26
MISSOULA       CLOUDY    38  24  57 W10       30.25R WCI  31
BUTTE          CLOUDY    37  22  54 W15G32    30.12R WCI  28
MULLAN PASS    CLOUDY    23  20  88 W9G20     30.18R WCI  13
ANACONDA         N/A     37  25  60 NW13G20   30.14R WCI  29
DEER LODGE       N/A     34  25  69 NW14G24   30.17R WCI  24
HAMILTON         N/A     36  30  80 CALM        N/A
LIBBY            N/A     43  21  42 CALM        N/A
PLAINS           N/A     42  23  47 SW14      30.22R
THOMPSON FALLS   N/A     41  28  60 W10       30.27R
$$

MTZ008-052>055-061800-
SOUTHWEST MONTANA

CITY           SKY/WX    TMP DP  RH WIND       PRES   REMARKS
BOZEMAN        CLOUDY    41  21  44 SW24G31   30.08R
DILLON         CLOUDY    32  20  61 SW12      30.15S WCI  23
ENNIS          SUNNY     37  18  44 S25       30.22F WCI  26
THREE FORKS      N/A     46  -1  14 W14       30.07R
TWIN BRIDGES     N/A     33  17  52 E9        30.13R WCI  25
$$

MTZ009-010-012-014-046-048-049-054-061800-
EAST SLOPES AND CENTRAL MONTANA

CITY           SKY/WX    TMP DP  RH WIND       PRES   REMARKS
CUT BANK       SUNNY     38  20  48 W46G59    29.77S WCI  23
GREAT FALLS    SUNNY     39  22  50 SW40G48   29.93S WCI  26
MALMSTROM AFB  SUNNY     40  22  49 W25G38    29.95F
HELENA         CLOUDY    38  20  48 W22G33    30.11R WCI  27
CHOTEAU          N/A     37  25  60 W15G30    29.96S WCI  28
CONRAD           N/A     40  23  50 SW36      29.87R
$$

MTZ011-013-016-021-045-047-050-051-061800-
NORTH CENTRAL MONTANA

CITY           SKY/WX    TMP DP  RH WIND       PRES   REMARKS
HAVRE          SUNNY     45  23  42 W43G55    29.75R
LEWISTOWN      CLOUDY    38  29  70 W26G32    29.94F WCI  26
N BAR RANCH    LGT RAIN  39  28  65 NW24G31   29.92R WCI  28
CHINOOK          N/A     45  23  42 W26G37    29.76R
$$

MTZ017>020-022>027-061-062-061800-
NORTHEAST MONTANA

CITY           SKY/WX    TMP DP  RH WIND       PRES   REMARKS
GLASGOW        CLOUDY    42  30  62 W24G35    29.73S
JORDAN           N/A     42  28  57 W15       29.81S
SIDNEY         CLOUDY    43  28  56 S14       29.73F
WOLF POINT     CLOUDY    42  28  57 SW6       29.72F
PLENTYWOOD       N/A     45  28  53 W14       29.65F
POPLAR           N/A     37  28  70 SW6       29.72F
SCOBEY           N/A     40  21  46 S3        29.67F
$$

MTZ028>42-056>058-061800-
SOUTHCENTRAL AND SOUTHEAST MONTANA

CITY           SKY/WX    TMP DP  RH WIND       PRES   REMARKS
BAKER          CLOUDY    41  19  41 W16       29.84F
BILLINGS       CLOUDY    43  15  32 W20G28    29.96R
LIVINGSTON     CLOUDY    44  16  32 W33G46    29.97R
MILES CITY     CLOUDY    49  22  34 W17G24    29.85S
EKALAKA          N/A     40  17  39 SW12      29.85F
FORSYTH          N/A     46  19  34 W14G21    29.88S
LAUREL           N/A     43  15  32 SW10      29.96R
ROUNDUP          N/A     49  18  29 W20       29.84R
$$

REGIONAL REPORTS...DAKOTAS

CITY           SKY/WX    TMP DP  RH WIND       PRES   REMARKS
WILLISTON      CLOUDY    41  28  60 SW8       29.70F
MINOT          CLOUDY    47  26  44 SW15G23   29.66S
DICKINSON      MOSUNNY   42  21  43 W17       29.78F
BEACH            N/A     41  21  45 W20G29    29.83S
CROSBY           N/A     41  30  65 SW17      29.65F
TIOGA            N/A     39  32  75 W21       29.72F WCI  29
WATFORD CITY     N/A     41  27  56 SW12G20   29.72F
BISMARCK       CLOUDY    44  26  49 SW7       29.79F
GRAND FORKS    CLOUDY    30  24  78 S14       29.75F WCI  19
FARGO          MOSUNNY   32  25  75 S13       29.81F WCI  22
BUFFALO SD       N/A     41  22  46 W20       29.81F
RAPID CITY     CLOUDY    40  28  62 SE3       29.97F
$$

REGIONAL REPORTS...WYOMING/IDAHO/WASHINGTON

CITY           SKY/WX    TMP DP  RH WIND       PRES   REMARKS
GILLETTE       CLOUDY    36  23  59 SW24G32   29.96F WCI  24
SHERIDAN       CLOUDY    36  24  62 W3        29.92S
BUFFALO WY     CLOUDY    42  22  44 SE8       29.94F
CODY           CLOUDY    43  18  36 NE5       30.06R
YELLOWSTONE LA   N/A     21  16  81 VRB7G17   30.26F WCI  12
IDAHO FALLS    CLOUDY    16  12  84 CALM      30.44R
SALMON         CLOUDY    16  12  86 CALM      30.32R
BOISE          CLOUDY    38  29  70 SE6       30.43R
SPOKANE        PTSUNNY   33  29  85 SW7       30.30R WCI  27
$$

REGIONAL REPORTS...ALBERTA

CITY           SKY/WX    TMP DP  RH WIND       PRES   REMARKS
EDMONTON       SUNNY     39  19  45 W25G39    29.57R WCI  28
CALGARY        MOSUNNY   39  23  52 W15G25    29.72R WCI  31
LETHBRIDGE     PTSUNNY   43  16  33 W38G62    29.76R
MEDICINE HAT   PTSUNNY   43  23  45 W33G44    29.64R
WATERTON GATE    N/A     37  12  35 SW46G74     N/A  WCI  22
MILK RIVER       N/A     41  14  33 W37G48      N/A
ONEFOUR          N/A     43  18  36 W44G55      N/A
$$

REGIONAL REPORTS...SASKATCHEWAN

CITY           SKY/WX    TMP DP  RH WIND       PRES   REMARKS
SWIFT CURRENT  PTSUNNY   43  27  52 W43G55    29.52R
REGINA         PTSUNNY   41  28  60 SW13      29.51S
SASKATOON      CLOUDY    37  30  75 W15G22    29.39F WCI  28
CYPRESS HILLS    N/A     36  18  48 W28G47      N/A  WCI  23
ASSINIBOIA       N/A     39  25  56 W23G30      N/A  WCI  29
$$



USA.gov is the U.S. government's official web portal to all federal, state and local government web resources and services.